Regional Weather Roundup
Issued by NWS

Home | Current Version | Previous Version | Text Only | Print | Product List | Glossary On
Versions: 1 2 3 4 5 6 7 8 9 10 11 12 13 14 15 16 17 18 19 20 21 22 23 24 25 26 27 28 29 30 31 32 33 34 35 36 37 38 39 40 41 42 43 44 45 46 47 48 49 50
354
ASUS43 KLOT 301808
RWRIL

ILLINOIS REGIONAL WEATHER ROUNDUP
NATIONAL WEATHER SERVICE CHICAGO/ROMEOVILLE IL
100 PM CDT THU MAR 30 2017

NOTE: "FAIR" INDICATES FEW OR NO CLOUDS BELOW 12,000 FEET WITH NO
SIGNIFICANT WEATHER AND/OR OBSTRUCTIONS TO VISIBILITY.

* THESE STATIONS ARE NOT UNDER NWS QUALITY CONTROL. THEY ALSO MAY NOT
  REPORT WEATHER SUCH AS PRECIPITATION OR FOG.

ILZ001-002-007-009-015-016-024-301900-
NORTHWEST ILLINOIS

CITY           SKY/WX    TMP DP  RH WIND       PRES   REMARKS
MOLINE         CLOUDY    46  42  86 NE10      29.59F
6HR MIN TEMP:  45; 6HR MAX TEMP:  46; 6HR PCP:  0.15;

STERLING*      RAIN      43  41  93 NE12      29.64F
SAVANNA*       CLOUDY    42  40  92 NE17G23   29.63F
$$

ILZ003-004-008-010-011-017-018-301900-
NORTH CENTRAL ILLINOIS

CITY           SKY/WX    TMP DP  RH WIND       PRES   REMARKS
ROCKFORD       LGT RAIN  42  39  89 E15       29.68F
6HR MIN TEMP:  42; 6HR MAX TEMP:  42; 6HR PCP:  0.56;

FREEPORT*      LGT RAIN  40  39  97 NE16      29.70F
ROCHELLE*      RAIN      41  41  97 NE8       29.66S
DE KALB*       RAIN      41  40  98 E14       29.67S
PERU*          LGT RAIN  43  42  96 NE23G30   29.56F
$$

ILZ005-006-012>014-019>023-301900-
NORTHEAST ILLINOIS

CITY           SKY/WX    TMP DP  RH WIND       PRES   REMARKS
CHICAGO-OHARE  LGT RAIN  43  40  89 E12G23    29.66F FOG
6HR MIN TEMP:  42; 6HR MAX TEMP:  43; 6HR PCP:  0.50;

CHICAGO-MIDWAY LGT RAIN  44  43  96 NE15G23   29.63F FOG
6HR MIN TEMP:  41; 6HR MAX TEMP:  45; 6HR PCP:  0.37;

AURORA         LGT RAIN  44  42  93 NE8       29.67R FOG
6HR MIN TEMP:  43; 6HR MAX TEMP:  44; 6HR PCP:  0.66;

LANSING*       LGT RAIN  46  45  98 E15G23    29.63F
JOLIET*        RAIN      46  46  97 W5        29.66R
WAUKEGAN       RAIN      40  40 100 NE15G24   29.65F FOG
6HR MIN TEMP:  38; 6HR MAX TEMP:  40; 6HR PCP:  0.40;

DUPAGE AIRPORT LGT RAIN  43  43 100 NE7       29.67R FOG
6HR MIN TEMP:  41; 6HR MAX TEMP:  43; 6HR PCP:  0.53;

KANKAKEE*      CLOUDY    47  47  97 E15       29.59F
WHEELING       LGT RAIN  41  41 100 NE9       29.69F FOG
6HR MIN TEMP:  40; 6HR MAX TEMP:  41; 6HR PCP:  0.41;

MORRIS*        MIX PCPN  45  43  95 CALM      29.64R VSB 3/4
ROMEOVILLE*    LGT SNOW  44  44 100 E5        29.64S
NORTHERLY ISL    N/A     40  39  97 N9          N/A
$$

LMZ740>746-301900-
SOUTHERN LAKE MICHIGAN

STATION/POSITION SKY/WX   TEMP    WIND        PRES    VSBY  WAVE
                          AIR SEA DIR/SP/G                  HT/PER
                          (F)     (DEG/KT/KT) (MB)    (MI)  (FT/S)
HARRISON CRIB              41      60/  8/ 10   N/A
BURNHAM HARBOR             40      40/ 10/ 12   N/A
CALUMET HARBOR             41      50/  7/ 11 1003.6F
BURNS HARBOR               45     120/ 18/ 25 1003.7F
MICHIGAN CITY              44     100/ 15/ 20   N/A
$$

ILZ025>027-034>036-040-047-049-050-058-095>099-301900-
WEST-CENTRAL ILLINOIS

CITY           SKY/WX    TMP DP  RH WIND       PRES   REMARKS
QUINCY         LGT RAIN  56  56 100 NW10      29.53S FOG
GALESBURG*     CLOUDY    48  47  96 NE8       29.57R
MACOMB*        CLOUDY    50  50  99 NE9       29.58R
JACKSONVILLE*  CLOUDY    65  56  74 CALM      29.50F
PITTSFIELD*    TSTM      60  58  93 W7        29.53F
$$

ILZ028>032-037-038-041>044-048-051>054-059>061-301900-
CENTRAL ILLINOIS

CITY           SKY/WX    TMP DP  RH WIND       PRES   REMARKS
PONTIAC        LGT RAIN  48  47  99 E8        29.62F
BLOOMINGTON    LGT RAIN  51  50  96 E20       29.56F
DECATUR        CLOUDY    64  50  60 SW9       29.55F
PEORIA         CLOUDY    52  51  97 CALM      29.57R
6HR MIN TEMP:  46; 6HR MAX TEMP:  52; 6HR PCP:  0.65;

LACON*         CLOUDY    47  46  99 E17G28    29.55F
LINCOLN*       PTSUNNY   60  58  92 CALM      29.53F
SPRINGFIELD    PTSUNNY   66  60  81 NE3       29.53F
6HR MIN TEMP:  54; 6HR MAX TEMP:  66; 6HR PCP:  0.86;

TAYLORVILLE    CLOUDY    65  61  87 S12       29.53F
$$

ILZ033-039-045-046-055>057-062-063-301900-
EAST-CENTRAL ILLINOIS

CITY           SKY/WX    TMP DP  RH WIND       PRES   REMARKS
CHAMPAIGN      LGT RAIN  61  58  90 S12       29.56S FOG
RANTOUL*       CLOUDY    61  59  94 S6        29.56F
MATTOON        CLOUDY    66  60  81 S14       29.55F
PARIS*         TSTM      65  61  86 S10       29.57F
$$

ILZ079-100>102-301900-
SOUTHWEST ILLINOIS

CITY           SKY/WX    TMP DP  RH WIND       PRES   REMARKS
ALTON          TSTM      57  54  88 SW21G38   29.55R
BELLEVILLE     TSTM      71  59  66 VRB7      29.49F
CAHOKIA*       CLOUDY    61  55  81 W17G26    29.54R
SPARTA*        CLOUDY    71  56  60 S18G26    29.52F
$$

ILZ064>066-069>071-074>076-080>082-084>086-088>090-092>094-301900-
SOUTH-CENTRAL ILLINOIS

CITY           SKY/WX    TMP DP  RH WIND       PRES   REMARKS
CARBONDALE     MOSUNNY   71  61  70 S24G30    29.55F
6HR MIN TEMP:  62; 6HR MAX TEMP:  72; 6HR PCP:  0.03;

CAIRO*         PTSUNNY   71  59  67 SW18G28   29.58F
EFFINGHAM*     CLOUDY    71  61  71 S15G23    29.56F
MARION         PTSUNNY   72  59  64 S16G25    29.57F
MT. VERNON     MOSUNNY   72  61  68 S21G28    29.55F
CENTRALIA*     PTSUNNY   73  62  70 S15G23    29.53F
SALEM*         CLOUDY    69  59  69 S17       29.55F
METROPOLIS*    CLOUDY    75  58  54 S16G26    29.58F
$$

ILZ067-068-072-073-078-083-087-091-301900-
SOUTHEAST ILLINOIS

CITY           SKY/WX    TMP DP  RH WIND       PRES   REMARKS
LAWRENCEVILLE  CLOUDY    72  57  59 SW22      29.58F
FLORA*         CLOUDY    71  60  70 S17G23    29.56F
FAIRFIELD*     PTSUNNY   71  61  69 S12       29.56F
HARRISBURG*    PTSUNNY   76  58  55 S17G26    29.57F
ROBINSON*      CLOUDY    70  58  65 S23G31    29.58F
CARMI*         PTSUNNY   72  59  62 S23G29    29.59F
$$

ABBREVIATIONS USED IN REMARKS
   TC - TEMPERATURE IN CELSIUS
  WCI - WIND CHILL INDEX
   HX - HEAT INDEX
  VSB - VISIBILITY
$$





USA.gov is the U.S. government's official web portal to all federal, state and local government web resources and services.